Simultaneous Nadir Overpasses (SNOs) Predictions

Prediction of SNOs between GOES-17 and AQUA Satellite Orbit:

Table of predicted SNOs for the next 14.0 days since TLE Epoch: 8/20/2022
Index Date Time (GOES-17) GOES-17 Lat,Lon AQUA Lat,Lon Distance(km) Time Diff (sec)
1 08/20/2022 22:50:20 -0.07,-137.31 -0.17,-137.90 66.65 80
2 08/22/2022 22:40:19 -0.07,-137.32 0.44,-134.81 284.44 80
3 08/23/2022 11:01:27 0.06,-137.32 0.64,-139.94 297.82 80
4 08/25/2022 10:46:07 0.06,-137.32 -0.05,-136.86 52.66 80
5 08/27/2022 10:36:06 0.05,-137.32 -0.69,-133.77 402.86 80
6 08/27/2022 22:54:42 -0.05,-137.31 -0.38,-138.93 184.08 80
7 08/29/2022 22:44:42 -0.05,-137.30 0.28,-135.85 165.86 80
8 08/30/2022 11:03:09 0.04,-137.30 0.80,-140.97 416.72 80
9 09/01/2022 10:50:27 0.04,-137.29 0.18,-137.88 67.61 80
